STARLINK-2129

decayed
NORAD ID: 47727 Int'l Des: 2021-017 Owner: SPXS Country: US Constellation: starlink
LEOCIRCULAR
グループ

STARLINK-2129について

説明を読み込み中...

高度履歴

Altitude vs Time

uPlot chart will show altitude changes over time

軌道要素

1 47727U 21017F 25034.56750933 .20303465 12534-4 66269-3 0 9994
2 47727 53.0222 73.9346 0003329 43.8021 94.9150 16.44740771218741
Epoch: Feb 3, 2025 • Age: 5375 hours

現在のステータス

Position data unavailable
打ち上げ日 Mar 4, 2021
運用期間 4.5 years
落下予定日 Feb 3, 2025
タイプ internet

技術仕様

分類 Payload
質量 260.00 kg
乾燥質量 248.00 kg
総質量 260.00 kg
長さ 0.20 m
直径 2.80 m
スパン 9.00 m
形状 Box + pan
製造者 SPXS
バスタイプ Starlink
フェーズステータス Reentered
所有者/国 SPXS/US

大規模コンステレーション

Loading constellations...